FW8051 Weather Reports


time (UTC)temp
C
wind
direction
speed
KPH
gust
KPH
rain 1hr
cm
rain 24hr
cm
rain mn
cm
humidity
%
barometer
mb
20260505124541 18 146 6.4 12.9 0.00 1.02 0.71 88 1013.5
20260505123043 18 192 6.4 12.9 0.00 1.02 0.71 89 1013.6
20260505121535 18 218 12.9 17.7 0.00 1.02 0.71 89 1013.5
20260505120048 18 186 4.8 12.9 0.00 1.02 0.71 88 1013.4
20260505114541 18 141 6.4 12.9 0.00 1.02 0.71 88 1013.4
20260505113044 18 0 3.2 12.9 0.00 1.02 0.71 89 1013.5
20260505111540 18 185 9.7 17.7 0.00 1.02 0.71 89 1013.7
20260505101540 17 123 17.7 22.5 0.00 1.02 0.71 89 1013.1
20260505100037 18 106 17.7 25.7 0.00 1.02 0.71 88 1013.1
20260505094537 18 103 14.5 19.3 0.00 1.02 0.71 88 1013.1
20260505093042 18 142 6.4 12.9 0.00 1.02 0.71 89 1012.9
20260505091541 18 149 6.4 17.7 0.00 1.02 0.71 90 1013.0
20260505090041 19 157 4.8 20.9 0.00 1.02 0.71 90 1012.8
20260505084541 18 360 12.9 24.1 0.00 1.02 0.71 92 1012.8
20260505083042 17 44 4.8 12.9 0.00 1.02 0.71 94 1012.6
20260505081549 17 69 6.4 9.7 0.00 1.02 0.71 94 1012.6
20260505080047 16 28 6.4 9.7 0.00 1.02 0.71 94 1012.7
20260505074540 16 39 8.0 12.9 0.00 1.02 0.71 94 1012.9
20260505073046 16 18 4.8 9.7 0.00 1.02 0.71 94 1012.8
20260505071549 16 50 6.4 9.7 0.00 1.02 0.71 94 1012.7
20260505070043 16 80 3.2 6.4 0.00 1.02 0.71 94 1012.3
20260505064543 16 53 1.6 8.0 0.00 1.02 0.71 94 1012.2
20260505063042 16 28 3.2 6.4 0.00 1.02 0.71 95 1012.1
20260505061539 16 109 1.6 4.8 0.00 1.02 0.71 94 1012.0
20260505060042 16 0 0.0 4.8 0.00 1.02 0.71 95 1012.1
20260505054550 16 263 4.8 6.4 0.00 1.02 0.71 94 1012.1
20260505053055 16 0 4.8 11.3 0.00 1.02 0.71 94 1011.8
20260505051544 16 246 3.2 6.4 0.00 0.99 0.69 94 1011.7
20260505041543 16 179 9.7 17.7 0.00 0.99 0.69 94 1011.5
20260505040044 16 155 3.2 16.1 0.00 0.99 0.69 95 1011.5
20260505034540 16 360 11.3 22.5 0.00 0.99 0.69 95 1011.5
20260505033045 16 150 12.9 20.9 0.05 0.99 0.69 94 1011.5
20260505031536 16 360 14.5 24.1 0.10 0.99 0.69 94 1011.6
20260505030043 16 360 17.7 24.1 0.13 0.99 0.69 94 1011.8
20260505024541 16 211 16.1 29.0 0.13 0.99 0.69 94 1011.9
20260505023045 16 190 25.7 38.6 0.08 0.94 0.64 94 1012.0
20260505021538 16 209 22.5 40.2 0.08 0.86 0.56 94 1012.2
20260505020040 16 360 22.5 33.8 0.08 0.84 0.56 95 1012.4
20260505014544 16 184 20.9 32.2 0.08 0.84 0.56 95 1012.4
20260505013044 16 183 16.1 27.4 0.08 0.84 0.53 94 1012.7
20260505011550 16 155 16.1 25.7 0.03 0.79 0.48 95 1012.9
20260505010047 16 161 16.1 24.1 0.10 0.76 0.46 94 1013.1
20260505004541 16 175 12.9 20.9 0.25 0.76 0.46 94 1013.3
20260505003040 16 171 11.3 20.9 0.25 0.74 0.46 94 1013.6
20260505001547 16 360 11.3 20.9 0.25 0.74 0.43 94 1013.7
20260505000036 16 169 9.7 20.9 0.15 0.64 0.33 94 1013.9
20260504234543 16 360 16.1 29.0 0.08 0.51 0.20 94 1014.3
20260504233043 16 205 9.7 20.9 0.10 0.48 0.18 93 1014.5
20260504231541 16 165 14.5 24.1 0.15 0.46 0.18 93 1014.8
20260504230037 16 185 14.5 24.1 0.18 0.46 0.18 94 1014.8
20260504224536 16 191 14.5 25.7 0.15 0.43 0.13 93 1015.0
20260504223040 16 189 16.1 32.2 0.10 0.36 0.08 93 1015.1
20260504221544 16 178 22.5 41.8 0.10 0.30 0.00 93 1015.3
20260504220100 16 182 20.9 32.2 0.15 0.28 0.00 93 1015.4
20260504214548 16 185 16.1 24.1 0.20 0.28 0.28 93 1015.7
20260504213047 16 199 11.3 19.3 0.23 0.25 0.25 92 1015.6
20260504211537 16 180 12.9 19.3 0.15 0.18 0.18 92 1016.0
20260504210041 16 181 8.0 19.3 0.10 0.13 0.13 92 1016.2
20260504204539 16 196 12.9 27.4 0.03 0.05 0.05 92 1016.4
20260504203041 16 360 17.7 29.0 0.00 0.00 0.00 92 1016.5
20260504201538 16 191 17.7 30.6 0.00 0.00 0.00 92 1016.3
20260504200042 16 161 16.1 27.4 0.00 0.00 0.00 91 1016.2
20260504194545 16 152 14.5 24.1 0.00 0.00 0.00 91 1016.1
20260504193040 16 155 16.1 25.7 0.00 0.00 0.00 91 1016.0
20260504191551 16 150 14.5 22.5 0.00 0.00 0.00 91 1015.8
20260504190044 16 159 12.9 24.1 0.00 0.00 0.00 92 1015.8
20260504184550 16 182 14.5 24.1 0.00 0.00 0.00 91 1015.9
20260504183049 16 196 17.7 27.4 0.00 0.00 0.00 91 1015.9
20260504181546 16 184 14.5 27.4 0.00 0.00 0.00 91 1015.7
20260504180041 17 219 16.1 25.7 0.00 0.00 0.00 90 1015.7
20260504174538 17 360 12.9 24.1 0.00 0.00 0.00 90 1015.8
20260504173037 17 192 12.9 25.7 0.00 0.00 0.00 89 1015.7
20260504171536 17 155 14.5 27.4 0.00 0.00 0.00 89 1015.8